Voltar ao catálogo

STARLINK-3755

AtivoComunicaçõesVLEO
NORAD 52307·PAYLOAD·🇺🇸 United States

Lançado Apr 21, 2022 de Cape Canaveral Space Force Station

Loading…

Próximas Passagens (próximas 24 horas)

TLE

AtualizadoSource: CelesTrak SupGP

Época: Sep 14, 2026, 21:02 UTC

1 52307C 22041AY  26257.87687500 -.00023327  00000+0 -68935-3 0  2578
2 52307  53.1577 317.6793 0001097  77.0188 302.0123 15.34395889    18

Acompanhe STARLINK-3755 em tempo real com AllMySat

Download on the App Store